Location: Arcizans
(42.9833°N, 0.1500°W)
Time: 07:50:42
(UTC+00:00)

Daily predictions for brighter satellites

Satellite Brightness Start Highest point End
(mag) Time Altitude Azimuth Time Altitude Azimuth Time Altitude Azimuth
Cosmos 2082 Rocket 2.2 17:52:54 10° NNW 17:58:34 73° ENE 18:04:12 10° SSE
Cosmos 1486 Rocket 4.0 17:54:03 10° NNW 17:59:18 81° ENE 18:04:32 10° SSE
STARLINK-80 4.0 17:56:48 10° WSW 18:00:33 55° NNW 18:04:19 10° NE
ATLAS 5 CENTAUR R/B 3.8 17:55:39 10° NW 18:01:18 45° WSW 18:07:38 10° S
FengYun 1-2 T 4.3 17:56:30 10° SSE 18:02:08 76° ENE 18:07:46 10° N
Cosmos 1743 Rocket 3.7 17:58:52 10° S 18:03:16 83° W 18:07:40 10° N
Cosmos 292 Rocket 4.0 18:00:09 10° S 18:04:45 48° ESE 18:09:22 10° NNE
Cosmos 1238 Rocket 4.2 18:02:03 10° SSE 18:07:49 51° E 18:14:11 10° NNE
Cosmos 1354 Rocket 4.2 18:05:20 10° N 18:10:31 51° ENE 18:15:38 10° SE
H-2A R/B 3.7 18:07:34 10° E 18:10:36 16° ENE 18:13:40 10° NNE
Meteor 2-3 Rocket 4.1 18:05:03 10° SSW 18:10:36 73° W 18:16:16 10° N
Cosmos 1833 Rocket 3.6 18:08:43 10° NNW 18:14:14 55° WSW 18:19:42 10° S
Cosmos 2016 Rocket 4.0 18:10:17 10° SSE 18:16:11 56° E 18:22:09 10° NNE
SL-27 R/B 4.3 18:18:07 10° NE 18:19:26 12° ENE 18:19:54 12° ENE
STARLINK-53 4.4 18:15:55 10° SSW 18:19:30 32° SE 18:22:40 12° ENE
STARLINK-64 3.8 18:17:10 10° SSW 18:20:32 40° SE 18:23:30 13° ENE
Ariane Rocket 3.8 18:22:32 10° ESE 18:26:51 29° ENE 18:31:11 10° N
YAOGAN 1 2.5 18:23:17 10° SSE 18:27:34 71° ENE 18:31:54 10° N
CSL-04 Rocket 3.7 18:23:43 10° SSE 18:29:13 68° ENE 18:34:42 10° N
Cosmos 921 Rocket 4.0 18:26:20 10° SSE 18:30:05 26° E 18:33:52 10° NE
STARLINK-1010 4.5 18:27:54 10° S 18:30:07 19° SE 18:31:07 16° ESE
STARLINK-61 3.4 18:26:53 10° SW 18:30:45 70° SE 18:33:58 15° ENE
USA 234 4.5 18:27:26 10° ENE 18:32:42 27° N 18:37:59 10° NW
USA 229 DEB 3.9 18:27:14 10° S 18:33:21 46° ESE 18:39:45 10° NE
USA 229 3.9 18:27:21 10° S 18:33:27 45° ESE 18:39:50 10° NE
SKYMED 2 4.3 18:29:20 10° N 18:33:37 58° WNW 18:37:52 10° SSW
Cosmos 2278 Rocket 3.9 18:28:47 10° WSW 18:33:47 32° NW 18:38:49 10° N
Cosmos 2233 Rocket 4.4 18:28:36 10° SSE 18:34:12 39° E 18:39:52 10° NNE
STARLINK-1008 4.3 18:32:16 10° S 18:34:44 22° SE 18:35:42 19° ESE
STARLINK-1016 4.3 18:33:05 10° S 18:35:30 21° SE 18:36:22 19° ESE
STARLINK-1025 4.3 18:33:33 10° S 18:36:00 22° SE 18:36:52 19° ESE
ADEOS Rocket 3.7 18:28:32 10° NNE 18:36:10 59° E 18:43:46 10° S
ARGOS 4.3 18:32:57 12° ESE 18:36:25 22° ENE 18:40:29 10° NNE
STARLINK-1017 4.3 18:34:30 10° S 18:36:59 22° SE 18:37:51 20° ESE
Cosmos 968 Rocket 3.8 18:32:03 10° NNW 18:37:13 70° WSW 18:42:24 10° S
NOAA 11 4.2 18:32:42 10° SSE 18:38:09 88° ENE 18:43:38 10° NNW
Cosmos 1633 Rocket 3.4 18:34:35 10° SSE 18:38:37 39° E 18:42:40 10° NNE
STARLINK-1028 4.2 18:36:40 10° S 18:39:12 24° SE 18:40:00 21° ESE
CSL-04 Debris 4.1 18:34:02 10° SSE 18:39:27 84° ENE 18:44:58 10° NNW
STARLINK-1048 4.2 18:36:56 10° S 18:39:30 24° SE 18:40:18 21° ESE
STARLINK-1021 4.2 18:37:10 10° S 18:39:43 24° SE 18:40:28 21° ESE
Abrixas rocket 2.0 18:36:58 10° WNW 18:39:56 71° SSW 18:41:54 19° SE
STARLINK-48 4.4 18:36:36 10° WSW 18:40:20 44° NNW 18:43:33 13° NE
STARLINK-1049 4.2 18:37:46 10° S 18:40:21 24° SE 18:41:08 22° ESE
Cosmos 1666 Rocket 3.7 18:36:17 10° S 18:40:36 52° E 18:44:59 10° NNE
NOSS 3-1 (A) 4.1 18:36:15 10° S 18:40:48 28° ESE 18:44:29 16° ENE
STARLINK-1051 4.1 18:38:24 10° S 18:40:58 24° SE 18:41:41 22° ESE
STARLINK-1019 4.1 18:38:40 10° SSW 18:41:15 24° SE 18:41:57 22° ESE
STARLINK-1012 4.1 18:39:36 10° SSW 18:42:12 25° SE 18:42:53 23° ESE
Lacrosse 4 Rocket 1.5 18:38:04 10° SSW 18:42:14 79° WNW 18:46:33 10° NNE
STARLINK 1040 3.7 18:40:05 10° SSW 18:42:33 28° SE 18:43:08 26° ESE
Cosmos 1782 3.8 18:39:14 10° NNW 18:43:08 50° W 18:47:00 10° S
STARLINK-1026 4.0 18:41:13 10° SSW 18:43:52 26° SE 18:44:32 24° ESE
STARLINK-1013 4.0 18:42:10 10° SSW 18:44:51 27° SE 18:45:28 25° ESE
STARLINK-1009 3.9 18:43:05 10° SSW 18:45:47 27° SE 18:46:23 25° ESE
Meteor 1-10 Rocket 4.1 18:40:16 10° N 18:45:56 78° E 18:51:29 10° SSE
STARLINK-1015 3.9 18:43:54 10° SSW 18:46:38 28° SE 18:47:13 26° ESE
Cosmos 1633 3.5 18:46:52 10° SSW 18:50:20 49° W 18:53:51 10° N
CRYOSAT 2 4.5 18:45:43 10° SSE 18:50:27 52° E 18:55:13 10° N
Cosmos 1862 3.2 18:46:29 10° S 18:50:29 85° E 18:54:29 10° N
SL-4 R/B 2.3 18:46:15 10° NW 18:51:01 71° NNE 18:53:45 23° ESE
STARLINK-24 3.6 18:47:06 10° SW 18:51:03 59° SE 18:53:07 26° ENE
STARLINK-81 3.5 18:54:49 10° SW 18:58:47 62° SE 19:00:27 32° ENE
STARLINK-26 4.5 18:56:35 10° W 18:59:47 34° NNW 19:01:39 20° NNE
STARLINK-54 3.5 18:56:38 10° SW 19:00:37 70° SE 19:02:19 33° ENE
STARLINK-77 3.5 18:58:04 10° SW 19:02:02 66° SE 19:03:36 34° ENE
STARLINK-25 3.5 18:59:46 10° SW 19:03:45 69° SE 19:05:15 36° ENE
STARLINK-71 3.4 19:01:34 10° SW 19:05:34 78° SE 19:07:07 36° ENE
deb Kosmos-1763 4.2 19:03:03 10° NNW 19:06:44 74° WSW 19:10:23 10° SSE
STARLINK-79 3.4 19:03:03 10° SW 19:07:03 73° SE 19:08:26 39° ENE
Cosmos 1943 Rocket 2.1 19:01:53 10° S 19:07:24 63° ESE 19:12:54 10° NNE
STARLINK-78 3.4 19:04:37 10° SW 19:08:38 76° SE 19:09:58 40° ENE
MOS 1 4.4 19:03:31 10° SE 19:08:58 51° ENE 19:14:25 10° N
STARLINK-75 3.4 19:06:33 10° WSW 19:09:57 61° NNW 19:11:02 38° NNE
STARLINK-57 3.4 19:06:26 10° SW 19:10:27 82° SE 19:11:45 41° ENE
STARLINK-49 3.4 19:07:57 10° SW 19:11:58 80° SE 19:13:11 44° ENE
STARLINK-33 3.6 19:09:16 10° WSW 19:12:27 51° NNW 19:13:17 39° NNE
STARLINK-27 3.4 19:09:39 10° SW 19:13:41 83° SE 19:14:49 46° ENE
STARLINK-22 3.2 19:11:04 10° WSW 19:14:29 71° NW 19:15:12 51° NNE
STARLINK-66 3.7 19:11:26 10° WSW 19:14:37 49° NNW 19:15:23 39° NNE
STARLINK-74 3.4 19:11:18 10° SW 19:15:19 85° SE 19:16:23 48° ENE
STARLINK-41 3.4 19:12:30 10° WSW 19:15:55 64° NNW 19:16:38 48° NNE
STARLINK-55 3.8 19:13:09 10° WSW 19:16:19 46° NNW 19:17:01 38° N
STARLINK-39 3.4 19:12:52 10° SW 19:16:54 87° SE 19:17:55 49° ENE
CZ-4 R/B 3.9 19:13:26 10° SSW 19:16:55 25° W 19:20:24 10° NW
STARLINK-28 3.9 19:14:50 10° WSW 19:17:57 42° NNW 19:18:38 36° N
STARLINK-31 3.4 19:14:35 10° SW 19:18:36 90° N 19:19:33 51° NE
Cosmos 1607 4.0 19:13:49 10° NW 19:20:09 83° WSW 19:25:53 13° SSE
Cosmos 1340 4.2 19:16:35 10° S 19:18:04 22° SSE 19:18:04 22° SSE
STARLINK-69 3.5 19:16:21 10° WSW 19:20:22 82° NW 19:21:20 50° NE
Cosmos 1470 Rocket 3.4 19:16:10 10° S 19:20:25 62° E 19:24:45 10° NNE
STARLINK-21 3.5 19:17:55 10° SW 19:21:57 85° NW 19:22:47 55° NE
STARLINK-45 3.6 19:19:48 10° WSW 19:23:49 75° NNW 19:24:40 53° NE
STARLINK-70 3.6 19:21:22 10° WSW 19:25:24 76° NNW 19:26:09 56° NE
STARLINK-1014 3.7 19:22:11 10° SW 19:24:47 46° SSW 19:24:47 46° SSW
STARLINK-58 3.5 19:23:01 10° WSW 19:26:33 61° NNW 19:26:53 57° N
Cosmos 1812 3.2 19:23:01 10° NNW 19:26:51 61° W 19:30:38 10° S
STARLINK-76 3.5 19:22:54 10° WSW 19:26:55 78° NW 19:27:34 60° NNE
Cosmos 1862 Rocket 3.4 19:24:04 10° N 19:28:24 87° ENE 19:31:35 18° S
STARLINK-62 3.6 19:24:55 10° WSW 19:28:25 57° NNW 19:28:42 55° N
STARLINK-23 3.6 19:24:33 10° WSW 19:28:34 76° NNW 19:29:09 61° NNE
STARLINK-34 3.6 19:26:11 10° WSW 19:29:40 56° NNW 19:29:53 55° NNW
Cosmos 1777 Rocket 3.9 19:24:22 10° NNW 19:29:42 85° ENE 19:32:51 25° SSE
STARLINK-32 3.6 19:26:14 10° WSW 19:30:14 74° NW 19:30:45 62° NNE
STARLINK-40 3.6 19:27:51 10° WSW 19:31:52 72° NNW 19:32:19 63° NNE
STARLINK-42 4.1 19:29:49 10° W 19:32:55 40° NNW 19:32:55 40° NNW
STARLINK-44 3.6 19:29:30 10° WSW 19:33:29 70° NW 19:33:53 64° N
Lacrosse 5 rocket 3.8 19:31:10 10° NW 19:34:01 16° NNW 19:35:54 13° NNE
Cosmos 2369 Rocket 2.0 19:28:24 10° SSW 19:34:01 81° ESE 19:38:21 18° NNE
Cosmos 1464 Rocket 4.2 19:28:15 10° SSE 19:34:13 46° E 19:40:15 10° NNE
Cosmos 2285 Rocket 4.0 19:28:14 10° NNW 19:34:31 58° ENE 19:36:24 42° ESE
STARLINK-37 3.7 19:31:11 10° WSW 19:35:11 65° NNW 19:35:33 60° N
NOSS 3-1 (C) 3.4 19:30:47 10° SW 19:36:14 73° NW 19:40:53 19° NNE
STARLINK-36 3.7 19:32:50 10° WSW 19:36:50 66° NNW 19:37:05 64° N
STARLINK-68 3.8 19:34:43 10° WSW 19:38:42 59° NNW 19:38:57 58° NNW
STARLINK-63 3.8 19:36:18 10° WSW 19:40:16 60° NNW 19:40:26 59° NNW
USA 267 3.3 19:38:57 43° E 19:40:51 58° SE 19:47:16 10° SSW
STARLINK-35 3.8 19:37:51 10° WSW 19:41:50 61° NNW 19:41:53 60° NNW
Meteor 1-27 Rocket 4.2 19:36:25 10° NNW 19:41:51 58° W 19:47:19 10° S
STARLINK-51 3.9 19:39:33 10° WSW 19:43:29 59° NNW 19:43:29 59° NNW
STARLINK-30 4.0 19:41:10 10° WSW 19:45:04 57° NW 19:45:04 57° NW
STARLINK-72 4.1 19:42:51 10° WSW 19:46:40 55° NW 19:46:40 55° NW
Cosmos 2263 4.1 19:41:45 10° SSW 19:47:31 75° ESE 19:49:08 48° NE
CZ-2C R/B 3.2 19:44:51 30° SSE 19:47:54 83° ENE 19:53:44 10° NNW
STARLINK-50 4.1 19:44:32 10° WSW 19:48:15 53° NW 19:48:15 53° NW
H-2A R/B 2.1 19:45:44 22° S 19:49:17 81° WSW 19:54:44 10° NNW
STARLINK-59 4.2 19:46:17 10° WSW 19:49:58 50° NW 19:49:58 50° NW
STARLINK-56 4.3 19:47:50 10° WSW 19:51:25 50° NW 19:51:25 50° NW
STARLINK-73 4.4 19:49:31 10° WSW 19:53:00 48° NW 19:53:00 48° NW
SL-27 R/B 4.3 19:51:37 10° NNW 19:53:32 28° NW 19:53:32 28° NW
STARLINK-38 4.5 19:51:12 10° WSW 19:54:37 46° NW 19:54:37 46° NW
Ariane Rocket 4.4 20:00:59 10° SSW 20:05:39 37° W 20:10:22 10° NNW
USA 234 3.6 20:14:46 47° NNE 20:14:46 47° NNE 20:20:57 10° NW
ARGOS 3.7 20:14:27 38° SSW 20:16:15 55° W 20:21:36 10° NNW
Lacrosse 4 Rocket 4.4 20:20:15 10° WNW 20:21:43 11° NW 20:23:11 10° NNW
Resurs 01 Rocket 4.4 20:33:50 11° NNW 20:33:50 11° NNW 20:33:56 10° NNW
SPOT 3 Rocket 4.4 20:30:39 47° WNW 20:30:39 47° WNW 20:34:42 10° NNW
SL-4 R/B 4.4 20:26:39 10° WNW 20:29:24 22° WSW 20:29:24 22° WSW
NOSS 3-1 (A) 4.0 20:25:52 10° WSW 20:31:13 50° NW 20:32:01 47° NNW
Cosmos 1943 Rocket 4.3 20:47:18 10° W 20:51:35 22° NW 20:55:03 13° N
